N333XP KBUR-KLAS

Flight info

Callsign N333XP
Flight time 0h 47m
Altitude 25000
Route SLAPP2 MISEN RNDRZ4
Aircraft C750/L-VGDW/C

Departure

Time 2026-05-06 19:15
Airport Hollywood Burbank/Bob Hope Airport (KBUR)

Arrival

Time 2026-05-06 20:02
Airport Harry Reid International Airport (KLAS)
Time Latitude Longitude Altitude Speed Heading
2026-05-06 19:03 34.20028 -118.35879 730 ft 0 kts 258°
2026-05-06 19:10 34.20041 -118.35916 732 ft 10 kts 327°
2026-05-06 19:10 34.20090 -118.35943 734 ft 0 kts 344°
2026-05-06 19:11 34.20152 -118.35951 737 ft 14 kts 28°
2026-05-06 19:11 34.20215 -118.35882 738 ft 11 kts 351°
2026-05-06 19:11 34.20277 -118.35898 741 ft 7 kts 347°
2026-05-06 19:12 34.20320 -118.35910 743 ft 6 kts 346°
2026-05-06 19:12 34.20375 -118.35927 745 ft 12 kts 346°
2026-05-06 19:12 34.20496 -118.35960 751 ft 22 kts 348°
2026-05-06 19:12 34.20674 -118.36008 762 ft 27 kts 347°
2026-05-06 19:13 34.20842 -118.36055 769 ft 22 kts 347°
2026-05-06 19:13 34.20976 -118.36092 775 ft 17 kts 347°
2026-05-06 19:13 34.21100 -118.36127 779 ft 20 kts 347°
2026-05-06 19:13 34.21205 -118.36121 781 ft 0 kts 55°
2026-05-06 19:14 34.21206 -118.36121 781 ft 0 kts 56°
2026-05-06 19:14 34.21215 -118.36092 781 ft 11 kts 77°
2026-05-06 19:14 34.21116 -118.36015 777 ft 32 kts 167°
2026-05-06 19:14 34.20637 -118.35882 758 ft 110 kts 165°
2026-05-06 19:15 34.19636 -118.35586 772 ft 167 kts 164°
2026-05-06 19:15 34.18446 -118.35215 1326 ft 184 kts 169°
2026-05-06 19:15 34.17263 -118.35347 1918 ft 196 kts 208°
2026-05-06 19:15 34.16152 -118.36364 2643 ft 206 kts 221°
2026-05-06 19:16 34.15041 -118.37502 3294 ft 219 kts 221°
2026-05-06 19:16 34.13843 -118.38721 3801 ft 231 kts 221°
2026-05-06 19:16 34.12574 -118.40010 4434 ft 237 kts 221°
2026-05-06 19:16 34.11427 -118.41448 5027 ft 240 kts 246°
2026-05-06 19:17 34.11213 -118.43356 5681 ft 233 kts 288°
2026-05-06 19:17 34.12080 -118.44909 6350 ft 228 kts 329°
2026-05-06 19:17 34.13594 -118.45406 7060 ft 231 kts
2026-05-06 19:17 34.14949 -118.45174 7644 ft 239 kts 13°
2026-05-06 19:18 34.16882 -118.44607 8411 ft 251 kts 17°
2026-05-06 19:18 34.18518 -118.44041 9032 ft 260 kts 18°
2026-05-06 19:18 34.20239 -118.43426 9644 ft 252 kts 18°
2026-05-06 19:18 34.21667 -118.42906 10154 ft 251 kts 18°
2026-05-06 19:19 34.23253 -118.42330 10739 ft 251 kts 18°
2026-05-06 19:19 34.24968 -118.41705 11371 ft 251 kts 18°
2026-05-06 19:19 34.26659 -118.41090 11988 ft 258 kts 18°
2026-05-06 19:19 34.28411 -118.40452 12635 ft 269 kts 18°
2026-05-06 19:20 34.30250 -118.39782 13279 ft 279 kts 18°
2026-05-06 19:20 34.32132 -118.39098 13914 ft 289 kts 18°
2026-05-06 19:20 34.34112 -118.38374 14562 ft 299 kts 19°
2026-05-06 19:20 34.36079 -118.37656 15182 ft 307 kts 19°
2026-05-06 19:21 34.38141 -118.36903 15794 ft 315 kts 18°
2026-05-06 19:21 34.40346 -118.36362 16412 ft 323 kts 14°
2026-05-06 19:21 34.42380 -118.35249 17049 ft 326 kts 35°
2026-05-06 19:21 34.44298 -118.34069 17644 ft 332 kts 18°
2026-05-06 19:22 34.46308 -118.33166 18227 ft 335 kts 32°
2026-05-06 19:22 34.48142 -118.31387 18913 ft 337 kts 40°
2026-05-06 19:22 34.49983 -118.29594 19534 ft 341 kts 39°
2026-05-06 19:22 34.51536 -118.28026 20062 ft 344 kts 39°
2026-05-06 19:23 34.53389 -118.26183 20689 ft 347 kts 39°
2026-05-06 19:23 34.55147 -118.24418 21281 ft 350 kts 39°
2026-05-06 19:23 34.57010 -118.22555 21905 ft 352 kts 39°
2026-05-06 19:23 34.58865 -118.20695 22529 ft 353 kts 39°
2026-05-06 19:24 34.60751 -118.18805 23166 ft 354 kts 39°
2026-05-06 19:24 34.62536 -118.17012 23774 ft 355 kts 39°
2026-05-06 19:24 34.64395 -118.15146 24414 ft 355 kts 39°
2026-05-06 19:24 34.66140 -118.13005 24993 ft 358 kts 55°
2026-05-06 19:25 34.67054 -118.10289 25124 ft 377 kts 75°
2026-05-06 19:25 34.67496 -118.07111 25164 ft 391 kts 75°
2026-05-06 19:25 34.68065 -118.03793 25155 ft 406 kts 75°
2026-05-06 19:25 34.68608 -118.00519 25149 ft 420 kts 75°
2026-05-06 19:26 34.69179 -117.96961 25133 ft 436 kts 78°
2026-05-06 19:26 34.69391 -117.93552 25159 ft 445 kts 83°
2026-05-06 19:26 34.69628 -117.89765 25127 ft 448 kts 82°
2026-05-06 19:26 34.69846 -117.85938 25129 ft 448 kts 82°
2026-05-06 19:27 34.70078 -117.82169 25118 ft 444 kts 82°
2026-05-06 19:27 34.70272 -117.78850 25123 ft 441 kts 82°
2026-05-06 19:27 34.70487 -117.75125 25114 ft 439 kts 83°
2026-05-06 19:27 34.70625 -117.71382 25106 ft 436 kts 83°
2026-05-06 19:28 34.70776 -117.67703 25102 ft 434 kts 83°
2026-05-06 19:28 34.70915 -117.64066 25105 ft 431 kts 83°
2026-05-06 19:28 34.71055 -117.60463 25098 ft 429 kts 83°
2026-05-06 19:28 34.71196 -117.56789 25105 ft 427 kts 83°
2026-05-06 19:29 34.71326 -117.53365 25116 ft 425 kts 83°
2026-05-06 19:29 34.71690 -117.49774 25075 ft 419 kts 70°
2026-05-06 19:29 34.72626 -117.46432 25136 ft 415 kts 69°
2026-05-06 19:29 34.73489 -117.43076 25131 ft 415 kts 68°
2026-05-06 19:30 34.74344 -117.39897 25117 ft 414 kts 69°
2026-05-06 19:30 34.75229 -117.36552 25111 ft 414 kts 69°
2026-05-06 19:30 34.76110 -117.33241 25115 ft 413 kts 69°
2026-05-06 19:30 34.77006 -117.29861 25110 ft 413 kts 69°
2026-05-06 19:31 34.77875 -117.26578 25109 ft 413 kts 69°
2026-05-06 19:31 34.78730 -117.23353 25103 ft 415 kts 69°
2026-05-06 19:31 34.80518 -117.16582 25114 ft 425 kts 69°
2026-05-06 19:32 34.81423 -117.13143 25106 ft 430 kts 69°
2026-05-06 19:32 34.82341 -117.09650 25111 ft 434 kts 69°
2026-05-06 19:32 34.83270 -117.06126 25107 ft 438 kts 69°
2026-05-06 19:32 34.84174 -117.02674 25106 ft 441 kts 69°
2026-05-06 19:33 34.85135 -116.99024 25110 ft 445 kts 70°
2026-05-06 19:33 34.86084 -116.95391 25110 ft 448 kts 69°
2026-05-06 19:33 34.87036 -116.91746 25111 ft 451 kts 70°
2026-05-06 19:33 34.87671 -116.89326 25112 ft 453 kts 70°
2026-05-06 19:34 34.88293 -116.86920 25108 ft 454 kts 70°
2026-05-06 19:34 34.88627 -116.85641 25104 ft 455 kts 70°
2026-05-06 19:34 34.90832 -116.77168 25095 ft 453 kts 70°
2026-05-06 19:34 34.91809 -116.73519 25082 ft 447 kts 66°
2026-05-06 19:35 34.93321 -116.70386 25113 ft 436 kts 51°
2026-05-06 19:35 34.94941 -116.67578 25057 ft 435 kts 55°
2026-05-06 19:35 34.96641 -116.64537 25076 ft 430 kts 53°
2026-05-06 19:35 34.98306 -116.61591 25078 ft 427 kts 54°
2026-05-06 19:36 35.00030 -116.58544 25064 ft 425 kts 53°
2026-05-06 19:36 35.01701 -116.55574 24850 ft 427 kts 54°
2026-05-06 19:36 35.03220 -116.52879 24352 ft 436 kts 54°
2026-05-06 19:36 35.04956 -116.49796 24098 ft 437 kts 54°
2026-05-06 19:37 35.06606 -116.46861 24047 ft 435 kts 54°
2026-05-06 19:37 35.08296 -116.43848 24052 ft 431 kts 54°
2026-05-06 19:37 35.09952 -116.40888 24055 ft 428 kts 54°
2026-05-06 19:37 35.11759 -116.38154 24037 ft 423 kts 43°
2026-05-06 19:38 35.13832 -116.35581 23519 ft 423 kts 46°
2026-05-06 19:38 35.15852 -116.32978 22882 ft 416 kts 45°
2026-05-06 19:38 35.17853 -116.30437 22238 ft 410 kts 46°
2026-05-06 19:38 35.19818 -116.27943 21603 ft 405 kts 45°
2026-05-06 19:39 35.21770 -116.25462 20974 ft 400 kts 45°
2026-05-06 19:39 35.23607 -116.23051 20360 ft 396 kts 47°
2026-05-06 19:39 35.25429 -116.20535 19728 ft 392 kts 47°
2026-05-06 19:39 35.27154 -116.18177 19165 ft 387 kts 47°
2026-05-06 19:40 35.28906 -116.15772 19076 ft 371 kts 47°
2026-05-06 19:40 35.30645 -116.13394 19094 ft 382 kts 47°
2026-05-06 19:40 35.32267 -116.11169 19087 ft 392 kts 47°
2026-05-06 19:40 35.34033 -116.08748 19091 ft 400 kts 47°
2026-05-06 19:41 35.35979 -116.06068 19077 ft 408 kts 47°
2026-05-06 19:41 35.37890 -116.03445 19070 ft 407 kts 47°
2026-05-06 19:41 35.39686 -116.00965 18312 ft 396 kts 47°
2026-05-06 19:41 35.41480 -115.98499 17558 ft 380 kts 47°
2026-05-06 19:42 35.43221 -115.96099 16792 ft 367 kts 47°
2026-05-06 19:42 35.44775 -115.93956 16093 ft 357 kts 47°
2026-05-06 19:42 35.46397 -115.91721 15349 ft 348 kts 47°
2026-05-06 19:42 35.47978 -115.89533 14673 ft 331 kts 47°
2026-05-06 19:43 35.49414 -115.87551 13952 ft 321 kts 46°
2026-05-06 19:43 35.50778 -115.85666 13259 ft 311 kts 46°
2026-05-06 19:43 35.51922 -115.84084 13075 ft 290 kts 46°
2026-05-06 19:43 35.53249 -115.82247 13036 ft 284 kts 46°
2026-05-06 19:44 35.54570 -115.80424 13044 ft 283 kts 46°
2026-05-06 19:44 35.55864 -115.78628 13043 ft 281 kts 46°
2026-05-06 19:44 35.57178 -115.76809 13047 ft 280 kts 46°
2026-05-06 19:44 35.58370 -115.75154 13045 ft 280 kts 46°
2026-05-06 19:45 35.59611 -115.73455 13046 ft 279 kts 45°
2026-05-06 19:45 35.60869 -115.71761 13046 ft 278 kts 45°
2026-05-06 19:45 35.62183 -115.69982 13049 ft 278 kts 45°
2026-05-06 19:45 35.63395 -115.68351 13045 ft 277 kts 45°
2026-05-06 19:46 35.64703 -115.66583 13052 ft 277 kts 45°
2026-05-06 19:46 35.66007 -115.64824 13060 ft 277 kts 45°
2026-05-06 19:46 35.67313 -115.63057 13056 ft 278 kts 45°
2026-05-06 19:46 35.68615 -115.61292 13058 ft 278 kts 45°
2026-05-06 19:47 35.69880 -115.59583 13065 ft 278 kts 45°
2026-05-06 19:47 35.71192 -115.57809 13054 ft 278 kts 45°
2026-05-06 19:47 35.72488 -115.56059 13058 ft 278 kts 43°
2026-05-06 19:47 35.73965 -115.54765 13079 ft 275 kts 27°
2026-05-06 19:48 35.75492 -115.53727 13059 ft 276 kts 30°
2026-05-06 19:48 35.77187 -115.52523 13071 ft 276 kts 28°
2026-05-06 19:48 35.78851 -115.51361 13070 ft 276 kts 28°
2026-05-06 19:48 35.80554 -115.50168 13073 ft 277 kts 28°
2026-05-06 19:49 35.82182 -115.49025 13068 ft 276 kts 28°
2026-05-06 19:49 35.83873 -115.47841 13072 ft 276 kts 28°
2026-05-06 19:49 35.85551 -115.46664 13061 ft 276 kts 28°
2026-05-06 19:49 35.87224 -115.45489 13050 ft 276 kts 28°
2026-05-06 19:50 35.88925 -115.44295 13062 ft 276 kts 28°
2026-05-06 19:50 35.90610 -115.43112 13057 ft 276 kts 28°
2026-05-06 19:50 35.92266 -115.41955 13051 ft 275 kts 28°
2026-05-06 19:50 35.93828 -115.40866 13070 ft 274 kts 28°
2026-05-06 19:51 35.95519 -115.39683 13012 ft 277 kts 28°
2026-05-06 19:51 35.97125 -115.38563 12364 ft 275 kts 28°
2026-05-06 19:51 35.98780 -115.37405 11731 ft 271 kts 28°
2026-05-06 19:51 36.00386 -115.36208 11137 ft 266 kts 38°
2026-05-06 19:52 36.01290 -115.34335 11054 ft 249 kts 75°
2026-05-06 19:52 36.01371 -115.32200 11066 ft 254 kts 87°
2026-05-06 19:52 36.01301 -115.30006 11041 ft 256 kts 88°
2026-05-06 19:52 36.01196 -115.27818 11036 ft 257 kts 89°
2026-05-06 19:53 36.01073 -115.25574 10556 ft 258 kts 90°
2026-05-06 19:53 36.00959 -115.23531 9989 ft 253 kts 90°
2026-05-06 19:53 36.00834 -115.21400 9378 ft 249 kts 90°
2026-05-06 19:53 36.00721 -115.19301 9037 ft 238 kts 90°
2026-05-06 19:54 36.00607 -115.17401 9019 ft 235 kts 90°
2026-05-06 19:54 36.00493 -115.15356 9026 ft 240 kts 90°
2026-05-06 19:54 36.00372 -115.13248 9030 ft 246 kts 90°
2026-05-06 19:54 36.00249 -115.11119 9030 ft 251 kts 90°
2026-05-06 19:55 36.00169 -115.08964 9027 ft 254 kts 88°
2026-05-06 19:55 36.00104 -115.06750 8824 ft 263 kts 89°
2026-05-06 19:55 36.00025 -115.04417 8245 ft 279 kts 89°
2026-05-06 19:55 35.99949 -115.02119 8059 ft 250 kts 89°
2026-05-06 19:56 35.99906 -115.00127 7972 ft 217 kts 86°
2026-05-06 19:56 35.99902 -114.98306 7493 ft 221 kts 87°
2026-05-06 19:56 35.99900 -114.96375 6915 ft 228 kts 88°
2026-05-06 19:56 35.99891 -114.94377 6323 ft 232 kts 88°
2026-05-06 19:57 36.00189 -114.92484 5696 ft 226 kts 59°
2026-05-06 19:57 36.01295 -114.91245 5244 ft 211 kts 29°
2026-05-06 19:57 36.02415 -114.90453 5004 ft 193 kts 30°
2026-05-06 19:57 36.03577 -114.89894 4920 ft 172 kts 359°
2026-05-06 19:58 36.04525 -114.90247 4971 ft 161 kts 333°
2026-05-06 19:58 36.05538 -114.90939 5020 ft 172 kts 332°
2026-05-06 19:58 36.06580 -114.91702 5041 ft 184 kts 330°
2026-05-06 19:58 36.07531 -114.92685 4993 ft 193 kts 303°
2026-05-06 19:59 36.07786 -114.94331 4818 ft 204 kts 262°
2026-05-06 19:59 36.07487 -114.96075 4606 ft 208 kts 264°
2026-05-06 19:59 36.07394 -114.97862 4340 ft 204 kts 269°
2026-05-06 19:59 36.07366 -114.99467 4073 ft 196 kts 271°
2026-05-06 20:00 36.07360 -115.01150 3806 ft 186 kts 271°
2026-05-06 20:00 36.07359 -115.02618 3565 ft 174 kts 271°
2026-05-06 20:00 36.07362 -115.04095 3346 ft 169 kts 271°
2026-05-06 20:00 36.07362 -115.05539 3148 ft 168 kts 271°
2026-05-06 20:01 36.07364 -115.06993 2943 ft 167 kts 270°
2026-05-06 20:01 36.07364 -115.08321 2749 ft 167 kts 270°
2026-05-06 20:01 36.07364 -115.09604 2560 ft 167 kts 270°
2026-05-06 20:01 36.07365 -115.11043 2347 ft 167 kts 270°
2026-05-06 20:02 36.07361 -115.12468 2161 ft 165 kts 270°
2026-05-06 20:02 36.07357 -115.13808 2091 ft 139 kts 269°
2026-05-06 20:02 36.07362 -115.14750 2120 ft 66 kts 270°
2026-05-06 20:02 36.07364 -115.15044 2131 ft 32 kts 270°
2026-05-06 20:03 36.07384 -115.15297 2140 ft 27 kts 289°
2026-05-06 20:03 36.07457 -115.15490 2146 ft 15 kts 299°
2026-05-06 20:03 36.07461 -115.15500 2146 ft 0 kts 299°
2026-05-06 20:03 36.07480 -115.15538 2147 ft 11 kts 303°
2026-05-06 20:04 36.07547 -115.15640 2150 ft 5 kts 312°
2026-05-06 20:04 36.07558 -115.15654 2150 ft 8 kts 314°
2026-05-06 20:04 36.07635 -115.15749 2152 ft 20 kts 315°
2026-05-06 20:04 36.07777 -115.15824 2152 ft 12 kts 343°
2026-05-06 20:05 36.07799 -115.15867 2153 ft 18 kts 283°
2026-05-06 20:05 36.07800 -115.16100 2159 ft 32 kts 270°
2026-05-06 20:05 36.07800 -115.16330 2167 ft 27 kts 270°
2026-05-06 20:05 36.07801 -115.16387 2169 ft 0 kts 272°
2026-05-06 20:06 36.07801 -115.16443 2170 ft 17 kts 271°
2026-05-06 20:06 36.07803 -115.16627 2175 ft 22 kts 270°
2026-05-06 20:06 36.07803 -115.16828 2181 ft 23 kts 271°
2026-05-06 20:06 36.07800 -115.17002 2184 ft 0 kts 269°
2026-05-06 20:07 36.07800 -115.17007 2184 ft 2 kts 269°
2026-05-06 20:07 36.07805 -115.17057 2186 ft 9 kts 290°
2026-05-06 20:07 36.07888 -115.17078 2183 ft 18 kts 24°
2026-05-06 20:07 36.08012 -115.17005 2179 ft 19 kts 26°
2026-05-06 20:08 36.08138 -115.16962 2176 ft 15 kts 324°
2026-05-06 20:08 36.08147 -115.17045 2177 ft 8 kts 269°
2026-05-06 20:08 36.08162 -115.17082 2178 ft 0 kts